Tracking 20241 objects as of 26-Jan-2020
HD Live streaming from Space Station
objects crossing your sky now

BREEZE-M DEB

Track BREEZE-M DEB now!


NORAD ID: 41543
Int'l Code: 2015-075D
Perigee: 33,432.2 km
Apogee: 35,444.0 km
Inclination: 3.1 °
Period: 1,367.4 minutes
Semi major axis: 40809 km
RCS: Unknown
Launch date: December 13, 2015
Source: Commonwealth of Independent States (former USSR) (CIS)
Launch site: TYURATAM MISSILE AND SPACE COMPLEX (TTMTR)

Note: This is SATELLITE DEBRIS
aabbcc
Your satellite tracking list
Your tracking list is empty




NASA's NSSDC Master Catalog

Two Line Element Set (TLE):
1 41543U 15075D   20026.16884255 -.00000214 +00000-0 +00000-0 0  9992
2 41543 003.1461 083.5831 0246490 104.1615 258.5195 01.05309384015504
Source of the keplerian elements: AFSPC